Location: *
(51.1248°S, 108.4023°W)
Time: 01:10:21
(UTC+00:00)

Cosmos 1544 - Pass Details

Date: 01 November 2021
Orbit: 467 x 486 km, 82.5° (Epoch: 03 December)

Event Time Altitude Azimuth Distance (km) Brightness Sun altitude
Exits shadow 07:58:57 47° 229° (SW) 654 3.8 -23.0°
Drops below altitude 10° 08:02:08 10° 179° (S) 1,692 6.8 -22.8°
Sets 08:04:19 0° 173° (S) 2,585 8.2 -22.7°
